{"data":{"norad_id":66950,"intl_designator":"2025-286AB","name":"STARLINK-36111","alt_names":[],"object_type":"PAYLOAD","status":"ACTIVE","operator":null,"country":"US","launch_date":"2025-12-07","launch_site_code":"AFWTR","launch_vehicle":null,"mission":null,"orbit_class":"UNKNOWN","rcs_meters":null,"size_class":null,"mass_kg":null,"dimensions":null,"purposes":["comms"],"wikipedia_slug":null,"has_3d_model":false,"image_url":null,"decayed_at":null,"tle_current":{"epoch":"2026-09-20T01:16:15.633408Z","epoch_age_seconds":120114,"freshness":"FRESH","line1":"1 66950U 25286AB  26263.05295872  .00020582  00000+0  61852-3 0  9997","line2":"2 66950  53.1593 171.4661 0001673  88.4645 271.6549 15.34405489 45233","mean_motion":15.34405489,"eccentricity":0.0001673,"inclination_deg":53.1593,"raan_deg":171.4661,"arg_perigee_deg":88.4645,"mean_anomaly_deg":271.6549,"bstar":0.00061852,"rev_number":4523,"period_min":93.847422361509,"perigee_km":461.5424559482,"apogee_km":463.83139563377,"semimajor_km":6840.823925791,"source":"CELESTRAK","updated_at":"2026-09-21T09:00:36.061151Z"}}}